Location: Bonningues
(50.7927°N, 2.0150°E)
Time: 10:17:53
(UTC+00:00)

Cosmos 1763 Rocket - Pass Details

Date: 08 August 2020
Orbit: 732 x 780 km, 74.0° (Epoch: 20 September)

Event Time Altitude Azimuth Distance (km) Brightness Sun altitude
Rises 22:21:39 0° 332° (NNW) 3,274 8.4 -20.2°
Reaches altitude 10° 22:24:06 10° 327° (NNW) 2,344 7.2 -20.3°
Maximum altitude 22:29:12 48° 254° (WSW) 1,013 4.1 -20.7°
Enters shadow 22:31:08 33° 203° (SSW) 1,288 4.3 -20.8°
